Location: Enval
(45.8988°N, 3.0497°E)
Time: 12:26:55
(UTC+00:00)

Daily predictions for brighter satellites

Satellite Brightness Start Highest point End
(mag) Time Altitude Azimuth Time Altitude Azimuth Time Altitude Azimuth
Spot 2 4.4 16:28:03 10° SSE 16:32:46 78° ENE 16:37:47 10° NNW
Nadezhda 1 Rocket 4.2 16:27:48 10° S 16:34:10 84° W 16:40:38 10° N
Meteor 2-12 Rocket 4.5 16:28:36 10° N 16:34:44 66° ENE 16:40:47 10° SSE
Cosmos 2218 Rocket 4.4 16:31:12 10° N 16:36:56 39° ENE 16:42:38 10° SE
Cosmos 2366 rocket 4.4 16:32:10 10° N 16:37:54 38° ENE 16:43:33 10° SE
Cosmos 1867 3.8 16:32:36 10° SW 16:38:02 79° NW 16:43:33 10° NE
ERS-2 4.1 16:37:24 10° ENE 16:39:02 12° E 16:40:40 10° ESE
Envisat 3.0 16:37:08 10° SSE 16:42:12 78° ENE 16:47:18 10° N
Lacrosse 5 rocket 1.2 16:42:50 10° WSW 16:46:31 69° NW 16:50:06 10° NE
Cosmos 773 Rocket 4.3 16:43:00 10° S 16:48:02 48° ESE 16:53:08 10° NNE
YAOGAN 6 2.5 16:47:39 10° SSE 16:51:17 76° ENE 16:54:53 10° N
Cosmos 1606 2.9 16:49:45 10° SSW 16:53:38 78° W 16:57:32 10° N
Cosmos 2297 3.8 16:48:34 10° NNW 16:54:18 88° WSW 17:00:01 10° SSE
OE (NEXTSAT) 4.3 16:51:47 10° W 16:55:15 86° N 16:58:30 11° E
AQUARIUS 4.3 16:52:05 10° SSE 16:56:27 54° ENE 17:00:51 10° N
FengYun 1-2 T 4.5 16:51:17 10° SE 16:56:32 46° ENE 17:01:46 10° N
SL-16 R/B 2.2 16:52:18 10° SSW 16:57:57 86° ESE 17:03:40 10° NNE
CZ-4B R/B 2.6 16:56:26 11° NE 16:58:41 21° E 17:01:10 10° SSE
Landsat 5 3.7 16:55:25 10° NNE 16:59:54 87° WNW 17:04:26 10° SSW
BREEZE-M DEB (TANK) 1.8 16:59:19 10° WSW 17:02:06 64° SSE 17:03:26 17° ENE
USA 215 4.4 16:59:20 11° ENE 17:04:14 24° SE 17:09:23 10° S
SMAP 3.0 17:00:49 10° SSE 17:05:27 77° ENE 17:10:08 10° N
Sich 1 3.9 17:03:53 10° NNW 17:08:09 53° W 17:12:20 10° S
YAOGAN 1 4.1 17:09:19 15° ENE 17:09:30 15° ENE 17:11:59 10° NNE
Cosmos 1656 Rocket 4.4 17:05:13 10° N 17:10:11 30° NE 17:15:03 10° ESE
CZ-4C R/B 3.8 17:07:20 10° N 17:10:55 55° WNW 17:14:26 10° SSW
Cosmos 1151 Rocket 2.9 17:07:48 10° S 17:12:03 72° E 17:16:19 10° NNE
Cosmos 1470 Rocket 3.6 17:08:53 10° N 17:13:06 50° ENE 17:17:17 10° SSE
CSL-04 DEB 4.4 17:11:25 10° NNE 17:15:35 71° ESE 17:19:49 10° S
Cosmos 864 Rocket 4.4 17:12:40 10° N 17:19:00 73° E 17:25:13 10° SSE
Cosmos 2263 4.5 17:13:50 10° NNW 17:19:11 43° NE 17:24:30 10° SE
Cosmos 1515 Rocket 3.9 17:15:56 10° SSE 17:20:06 44° E 17:24:19 10° NNE
CZ-2C R/B 3.8 17:17:22 10° ESE 17:21:24 25° ENE 17:25:19 10° N
SL-8 Rocket 4.1 17:15:57 10° N 17:22:13 85° W 17:28:31 10° S
Cosmos 482 Debris 3.4 17:20:54 10° WNW 17:22:38 45° SSW 17:23:46 19° SE
TIMED 4.4 17:19:09 10° SSW 17:23:30 74° ESE 17:27:38 11° NNE
Cosmos 1238 Rocket 4.1 17:21:54 10° NNE 17:25:13 24° ENE 17:29:03 10° SE
TELKOM 3 4.0 17:23:19 10° WNW 17:25:50 31° N 17:26:18 29° NNE
COSMO-SKYMED 1 3.2 17:23:06 14° NE 17:26:23 35° E 17:30:21 10° SSE
Cosmos 1689 Rocket 4.4 17:29:01 12° SE 17:29:01 12° SE 17:29:22 10° SE
X-37B 1.0 17:24:58 10° WSW 17:28:05 52° SSE 17:29:28 28° E
USA 281 3.7 17:22:45 10° ESE 17:28:36 36° NE 17:34:27 10° NNW
Nadezhda 3 Rocket 4.5 17:23:49 10° SSE 17:29:33 37° E 17:35:19 10° NNE
SAR-Lupe-4 4.4 17:29:14 26° ENE 17:29:58 29° E 17:33:07 10° SSE
USA 81 4.2 17:26:30 10° N 17:31:48 80° W 17:37:05 10° S
Cosmos 2228 Rocket 3.9 17:28:47 10° SSE 17:32:45 30° E 17:34:29 23° NE
CORIOLIS 4.4 17:27:25 10° S 17:32:49 74° WSW 17:38:18 10° NNW
Helios 1A Rocket 4.0 17:33:25 24° NE 17:33:25 24° NE 17:36:10 10° N
Meteor 1-4 Rocket 2.4 17:30:25 10° S 17:34:00 89° E 17:37:26 11° N
H-2A R/B 3.0 17:35:18 23° E 17:36:17 25° ENE 17:40:23 10° N
Cosmos 1812 3.5 17:33:13 10° SSE 17:36:34 29° E 17:36:35 29° E
Cosmos 1821 Rocket 4.2 17:31:51 10° N 17:37:53 47° ENE 17:43:57 10° SSE
USA 267 3.8 17:34:11 21° ENE 17:38:08 42° NNE 17:44:12 10° NW
Cosmos 1939 Rocket 2.7 17:34:51 10° SSE 17:38:39 59° ENE 17:42:33 10° N
Cosmos 1328 Rocket 3.9 17:35:43 10° SSW 17:40:00 66° W 17:44:21 10° N
Meteor 1-11 Rocket 4.4 17:35:41 10° N 17:40:50 32° ENE 17:46:02 10° SE
CZ-4 R/B 2.1 17:41:26 30° NE 17:41:26 30° NE 17:44:35 10° N
BREEZE-M DEB (TANK) 3.7 17:39:24 10° SSW 17:42:15 19° SSE 17:42:53 18° SE
Cosmos 44 Rocket 3.8 17:37:44 10° NNW 17:42:40 43° NE 17:45:09 26° E
Cosmos 1933 Rocket 3.5 17:38:43 10° N 17:43:12 72° E 17:47:38 10° SSE
IRS-1C Rocket 4.1 17:39:51 10° SSE 17:45:02 61° ENE 17:50:15 10° N
Cosmos 1602 4.1 17:41:51 10° NNW 17:45:44 66° W 17:49:34 10° S
SAR-Lupe-1 4.4 17:46:35 41° E 17:46:59 43° E 17:50:25 10° S
NOAA 11 4.5 17:43:27 10° S 17:48:51 71° WSW 17:54:18 10° NNW
Lacrosse 4 Rocket 3.5 17:46:19 10° SSE 17:46:58 12° SE 17:46:58 12° SE
Cosmos 1680 Rocket 4.2 17:44:47 10° SSE 17:49:28 33° E 17:50:18 31° E
Cosmos 2237 Rocket 4.4 17:45:45 10° W 17:49:42 19° NW 17:53:39 10° N
CZ-4B R/B 4.3 17:45:08 10° S 17:50:12 44° W 17:55:15 10° NNW
SL-24 R/B 3.8 17:49:33 39° NE 17:50:33 51° E 17:54:07 10° S
Cosmos 1603 3.6 17:47:58 10° SSW 17:53:32 67° ESE 17:56:56 24° NE
CZ-2D R/B 3.1 17:51:45 10° SSE 17:55:31 64° ENE 17:59:20 10° N
Cosmos 1943 3.2 17:51:21 10° S 17:56:55 63° ESE 17:59:58 27° NE
H-2A R/B 3.9 17:54:24 10° N 17:58:05 29° WNW 18:01:47 10° SW
Cosmos 2369 Rocket 2.4 17:53:20 10° NNW 17:59:02 75° WSW 18:04:39 10° SSE
Cosmos 1538 Rocket 4.2 17:53:42 10° SSW 17:59:03 73° WNW 18:03:44 14° NNE
Cosmos 1943 Rocket 3.3 17:54:54 10° NW 18:00:11 45° WSW 18:05:28 10° S
Meteor 1-5 Rocket 4.2 17:55:31 10° N 18:01:26 71° ENE 18:07:09 10° SSE
Okean O Rocket 3.5 17:58:31 10° SSW 18:02:24 32° W 18:06:21 10° NNW
Cosmos 1782 3.7 17:58:35 10° SSW 18:02:26 48° WNW 18:06:19 10° N
Cosmos 1461 4.3 17:59:46 10° S 18:02:44 26° SE 18:02:44 26° SE
Okean-O 2.6 17:59:33 10° SSE 18:03:53 57° ENE 18:08:14 10° N
ISS -2.6 18:03:24 10° NW 18:05:55 33° NNW 18:05:55 33° NNW
ARGOS 4.2 18:08:32 27° NNE 18:08:32 27° NNE 18:11:31 10° N
CENTAUR R/B 3.0 18:01:46 10° S 18:07:01 37° ESE 18:07:44 36° E
Cosmos 2112 Rocket 4.3 18:05:01 10° S 18:09:53 42° ESE 18:09:53 42° ESE
Cosmos 2056 Rocket 4.2 18:05:35 10° N 18:09:29 34° NE 18:09:29 34° NE
ERS-2 2.9 18:10:45 22° N 18:12:52 50° WNW 18:16:25 10° SSW
SKYMED 2 3.7 18:11:44 21° N 18:14:35 74° WNW 18:18:54 10° SSW
NOSS 3-2 (C) 3.7 18:09:56 10° S 18:15:05 39° ESE 18:15:09 39° ESE
Cosmos 1869 Rocket 3.4 18:13:27 10° N 18:22:43 - SSE 18:17:49 68° ENE
BREEZE-M DEB (TANK) 3.2 18:11:29 10° SW 18:19:41 61° SSE 18:19:59 59° SE
Meteor 1-27 Rocket 4.1 18:15:55 10° SSE 18:20:11 43° SE 18:20:11 43° SE
Meteor 1-10 Rocket 4.1 18:19:57 10° S 18:25:35 84° E 18:28:50 26° NNE
Lacrosse 5 rocket 3.1 18:23:31 10° WNW 18:25:53 19° NNW 18:25:53 19° NNW
Cosmos 371 Rocket 4.1 18:24:47 10° NNW 18:28:00 38° N 18:28:00 38° N
CZ-4B R/B 3.7 18:29:34 16° NW 18:30:50 20° WNW 18:33:15 10° WSW
NOSS 3-2 (A) 3.2 18:34:35 10° SW 18:40:15 89° NW 18:41:27 60° NE
SL-16 R/B 4.4 18:38:48 10° W 18:42:51 20° NW 18:46:54 10° N
YAOGAN 1 3.6 18:46:28 40° NW 18:46:28 40° NW 18:49:25 10° NNW
Cosmos 1535 Rocket 4.3 18:39:16 10° N 18:45:26 81° E 18:51:33 10° S
USA 215 3.1 18:46:42 63° ENE 18:47:51 83° SE 18:54:25 10° SW
Cosmos 1656 Rocket 4.5 18:48:35 10° NW 18:53:59 49° WSW 18:58:59 12° S
MOS 1 Rocket 3.8 18:52:43 46° N 18:54:15 68° WNW 18:59:34 10° SSW
USA 238 DEB 3.6 18:53:02 10° SW 18:59:37 79° NW 19:00:35 66° NNE
USA 238 3.6 18:53:07 10° SW 18:59:43 80° NW 19:00:38 67° NNE
CZ-2C R/B 4.0 18:56:23 10° S 19:01:06 42° W 19:05:40 10° NNW
X-37B 4.1 19:01:26 10° W 19:01:44 12° W 19:01:44 12° W
Cosmos 1934 Rocket 4.3 19:01:03 10° NNW 19:07:22 67° W 19:13:34 10° S
USA 281 3.8 19:06:27 10° S 19:12:51 54° WSW 19:19:18 10° NNW
H-2A R/B 2.9 19:15:55 47° W 19:15:55 47° W 19:20:25 10° NNW
CZ-4 R/B 3.9 19:17:28 19° WNW 19:17:28 19° WNW 19:19:21 10° NW
USA 267 3.3 19:21:32 72° NW 19:21:32 72° NW 19:27:20 10° NW
Lacrosse 4 Rocket 4.4 19:23:14 10° SW 19:23:21 11° SW 19:23:21 11° SW
CENTAUR R/B 3.8 19:51:30 10° WSW 19:54:58 34° W 19:54:58 34° W
